Orlando, FL

1:42 AM EDT on September 29, 2016 (GMT -0400)
Orlando International

Weather History for KMCO - February, 2013

Change the Weather History Date:

Monday, February 11, 2013

  Actual Average Record
Temperature  
Mean Temperature 68 °F 62 °F  
Max Temperature 82 °F 73 °F 88 °F (1921)
Min Temperature 54 °F 52 °F 29 °F (1947)
Degree Days  
Heating Degree Days 0 5  
Month to date heating degree days 41 55  
Since 1 July heating degree days 263 439  
Cooling Degree Days 3 2  
Month to date cooling degree days 26 22  
Year to date cooling degree days 127 67  
Growing Degree Days 18 (Base 50)    
Moisture  
Dew Point 59 °F    
Average Humidity 72    
Maximum Humidity 100    
Minimum Humidity 43    
Precipitation  
Precipitation 0.00 in 0.09 in 1.16 in (1892)
Month to date precipitation 0.00 0.91  
Year to date precipitation 0.24 3.26  
Sea Level Pressure  
Sea Level Pressure 30.16 in    
Wind  
Wind Speed 8 mph (SSE)    
Max Wind Speed 17 mph    
Max Gust Speed 29 mph    
Visibility 10 miles    
Events Fog    
T = Trace of Precipitation, MM = Missing Value Source: NWS Daily Summary

Daily Weather History Graph

Daily Weather History Graph

Search for Another Location

Airport or City:

Trip Planner

Search our weather history database for the weather conditions in past years. The results will help you decide how hot, cold, wet, or windy it might be!

Date:

Astronomy

Feb. 11, 2013 Rise Set
Actual Time 7:06 AM EST 6:13 PM EST
Civil Twilight 6:42 AM EST 6:37 PM EST
Nautical Twilight 6:14 AM EST 7:05 PM EST
Astronomical Twilight 5:46 AM EST 7:32 PM EST
Moon 7:41 AM EST (2/11) 7:53 PM EST (2/11)
Length of Visible Light 11h 55m
Length of Day
11h 06m
Waxing Crescent, 3% of the Moon is Illuminated
Feb 11
Waxing Crescent
Feb 17
First Quarter
Feb 25
Full
Mar 4
Last Quarter
Mar 11
New

Hourly Weather History & Observations

Time (EST) Temp. Heat Index Dew Point Humidity Pressure Visibility Wind Dir Wind Speed Gust Speed Precip Events Conditions
12:53 AM 62.1 °F - 57.9 °F 86% 30.20 in 10.0 mi SSE 8.1 mph - N/A   Clear
1:53 AM 61.0 °F - 57.9 °F 90% 30.19 in 10.0 mi SSE 6.9 mph - N/A   Clear
2:53 AM 60.1 °F - 57.0 °F 90% 30.18 in 10.0 mi SSE 5.8 mph - N/A   Clear
3:53 AM 61.0 °F - 59.0 °F 93% 30.18 in 10.0 mi SE 3.5 mph - N/A   Clear
4:53 AM 57.9 °F - 57.0 °F 97% 30.17 in 10.0 mi East 3.5 mph - N/A   Clear
5:53 AM 57.9 °F - 55.9 °F 93% 30.20 in 10.0 mi Calm Calm - N/A   Clear
6:53 AM 55.9 °F - 55.9 °F 100% 30.22 in 10.0 mi Calm Calm - N/A Fog Patches of Fog
7:53 AM 59.0 °F - 57.9 °F 96% 30.22 in 10.0 mi East 4.6 mph - N/A   Clear
8:30 AM 64.4 °F - 60.8 °F 88% 30.23 in 10.0 mi ESE 3.5 mph - N/A   Clear
8:53 AM 66.9 °F - 62.1 °F 84% 30.23 in 10.0 mi SE 5.8 mph - N/A   Clear
9:53 AM 73.0 °F - 61.0 °F 66% 30.23 in 10.0 mi SSE 12.7 mph - N/A   Clear
10:53 AM 77.0 °F - 60.1 °F 56% 30.22 in 10.0 mi South 13.8 mph - N/A   Partly Cloudy
11:53 AM 79.0 °F - 60.1 °F 52% 30.19 in 10.0 mi SSE 16.1 mph - N/A   Partly Cloudy
12:53 PM 81.0 °F 81.1 °F 57.9 °F 45% 30.17 in 10.0 mi SSW 12.7 mph 20.7 mph N/A   Scattered Clouds
1:53 PM 81.0 °F 81.6 °F 60.1 °F 49% 30.14 in 10.0 mi South 11.5 mph 16.1 mph N/A   Scattered Clouds
2:53 PM 81.0 °F 81.1 °F 57.9 °F 45% 30.12 in 10.0 mi South 8.1 mph - N/A   Scattered Clouds
3:53 PM 82.0 °F 82.0 °F 57.9 °F 44% 30.09 in 10.0 mi South 13.8 mph 17.3 mph N/A   Scattered Clouds
4:53 PM 81.0 °F 81.1 °F 57.9 °F 45% 30.09 in 10.0 mi South 9.2 mph - N/A   Partly Cloudy
5:53 PM 77.0 °F - 57.9 °F 52% 30.09 in 10.0 mi SE 4.6 mph - N/A   Scattered Clouds
6:53 PM 73.9 °F - 59.0 °F 59% 30.10 in 10.0 mi SE 3.5 mph - N/A   Partly Cloudy
7:53 PM 68.0 °F - 59.0 °F 73% 30.12 in 10.0 mi SE 3.5 mph - N/A   Scattered Clouds
8:53 PM 71.1 °F - 61.0 °F 70% 30.12 in 10.0 mi SE 8.1 mph - N/A   Mostly Cloudy
9:53 PM 70.0 °F - 62.1 °F 76% 30.12 in 10.0 mi SSE 9.2 mph - N/A   Mostly Cloudy
10:53 PM 71.1 °F - 63.0 °F 75% 30.12 in 10.0 mi South 6.9 mph - N/A   Mostly Cloudy
11:53 PM 69.1 °F - 63.0 °F 81% 30.12 in 10.0 mi South 9.2 mph - N/A   Scattered Clouds